Volver al catálogo

COSMOS 2058

ActivoNavegaciónPO
NORAD 20465·PAYLOAD·🇷🇺 Russia

Lanzado Jan 30, 1990 desde Plesetsk Cosmodrome

Loading…

Próximos Pases (próximas 24 horas)

TLE

ActualizadoSource: Space-Track

Época: Sep 13, 2026, 22:26 UTC

1 20465U 90010A   26256.93493264  .00002543  00000-0  14455-3 0  9994
2 20465  82.4659 221.7977 0011228  52.7026 307.5227 15.12422074970688

Sigue COSMOS 2058 en tiempo real con AllMySat

Download on the App Store